When you browse on this site, cookies collect data to enhance your experience and personalize the content and advertising you see.
Visit our Privacy Policy to learn more. By continuing to use the site, you agree to this use of cookies and data.
  • In Sweden
  • List of Countries
  • For 7 days
  • Water Temperature
  • Satellite Maps
  • Weather Map
  • Weather Widgets
  • user-avatar
    Login

    Hourly Weather Bangor

    Today, 21 January, Monday

    Time Temperature Precipitation Wind Pressure Humidity
    00:00 +2°C° 0 mm 1 mps 750 mmHg 92%
    01:00 +3°C° 0 mm 1 mps 750 mmHg 92%
    02:00 +3°C° 0 mm 1 mps 750 mmHg 92%
    03:00 +2°C° 0 mm 0 mps 751 mmHg 92%
    04:00 +2°C° 0 mm 0 mps 750 mmHg 93%
    05:00 +2°C° 0 mm 0 mps 750 mmHg 93%
    06:00 +3°C° 0 mm 0 mps 750 mmHg 94%
    07:00 +4°C° 0 mm 1 mps 750 mmHg 94%
    08:00 +4°C° 0 mm 1 mps 750 mmHg 95%
    09:00 +3°C° 0 mm 2 mps 750 mmHg 95%
    10:00 +3°C° 0 mm 3 mps 749 mmHg 92%
    11:00 +3°C° 0 mm 4 mps 749 mmHg 89%
    12:00 +4°C° 0 mm 4 mps 748 mmHg 86%
    13:00 +3°C° 0.1 mm 5 mps 747 mmHg 87%
    14:00 +3°C° 0.1 mm 5 mps 746 mmHg 87%
    15:00 +3°C° 0.1 mm 5 mps 745 mmHg 87%
    16:00 +3°C° 0.1 mm 6 mps 744 mmHg 87%
    17:00 +3°C° 0.1 mm 6 mps 743 mmHg 87%
    18:00 +3°C° 0.1 mm 6 mps 742 mmHg 86%
    19:00 +3°C° 0.4 mm 7 mps 741 mmHg 86%
    20:00 +2°C° 0.4 mm 8 mps 740 mmHg 87%
    21:00 +3°C° 0.4 mm 9 mps 738 mmHg 87%
    22:00 +2°C° 1.2 mm 8 mps 738 mmHg 84%
    23:00 +2°C° 1.2 mm 7 mps 737 mmHg 81%

    Tomorrow, 22 January, Tuesday

    Time Temperature Precipitation Wind Pressure Humidity
    00:00 +1°C° 1.2 mm 6 mps 737 mmHg 78%
    01:00 -1°C° 0 mm 6 mps 736 mmHg 79%
    02:00 -1°C° 0 mm 5 mps 736 mmHg 81%
    03:00 -1°C° 0 mm 5 mps 736 mmHg 82%
    04:00 -1°C° 0 mm 5 mps 736 mmHg 82%
    05:00 -1°C° 0 mm 5 mps 735 mmHg 82%
    06:00 -1°C° 0 mm 5 mps 735 mmHg 81%
    07:00 -1°C° 0 mm 5 mps 735 mmHg 81%
    08:00 -1°C° 0 mm 5 mps 735 mmHg 80%
    09:00 -1°C° 0 mm 5 mps 735 mmHg 80%
    10:00 -1°C° 0 mm 6 mps 735 mmHg 76%
    11:00 -1°C° 0 mm 7 mps 735 mmHg 71%
    12:00 0°C° 0 mm 8 mps 735 mmHg 67%
    13:00 0°C° 0.1 mm 7 mps 734 mmHg 67%
    14:00 0°C° 0.1 mm 7 mps 734 mmHg 67%
    15:00 -1°C° 0.1 mm 7 mps 734 mmHg 68%
    16:00 -2°C° 0 mm 6 mps 734 mmHg 71%
    17:00 -2°C° 0 mm 5 mps 734 mmHg 75%
    18:00 -3°C° 0 mm 4 mps 735 mmHg 79%
    19:00 -3°C° 0 mm 4 mps 735 mmHg 80%
    20:00 -3°C° 0 mm 4 mps 735 mmHg 81%
    21:00 -3°C° 0 mm 4 mps 735 mmHg 82%
    22:00 -2°C° 0 mm 3 mps 735 mmHg 82%
    23:00 -2°C° 0 mm 3 mps 735 mmHg 82%

    Day after tomorrow, 23 January, Wednesday

    Time Temperature Precipitation Wind Pressure Humidity
    00:00 -2°C° 0 mm 3 mps 735 mmHg 82%
    01:00 -2°C° 0 mm 3 mps 736 mmHg 81%
    02:00 -2°C° 0 mm 3 mps 736 mmHg 81%
    03:00 -2°C° 0 mm 3 mps 736 mmHg 81%
    04:00 -2°C° 0 mm 3 mps 736 mmHg 82%
    05:00 -2°C° 0 mm 3 mps 736 mmHg 82%
    06:00 -2°C° 0 mm 3 mps 737 mmHg 83%
    07:00 -2°C° 0 mm 3 mps 737 mmHg 82%
    08:00 -1°C° 0 mm 3 mps 737 mmHg 81%
    09:00 -1°C° 0 mm 2 mps 738 mmHg 81%
    10:00 0°C° 0 mm 3 mps 738 mmHg 76%
    11:00 +2°C° 0 mm 3 mps 739 mmHg 71%
    12:00 +3°C° 0 mm 3 mps 739 mmHg 67%
    13:00 +3°C° 0 mm 3 mps 740 mmHg 68%
    14:00 +3°C° 0 mm 3 mps 740 mmHg 69%
    15:00 +3°C° 0 mm 3 mps 740 mmHg 71%
    16:00 +3°C° 0 mm 2 mps 740 mmHg 75%
    17:00 +2°C° 0 mm 2 mps 741 mmHg 80%
    18:00 +1°C° 0 mm 2 mps 741 mmHg 84%
    19:00 +1°C° 0 mm 2 mps 741 mmHg 85%
    20:00 +1°C° 0 mm 1 mps 742 mmHg 85%
    21:00 +1°C° 0 mm 1 mps 743 mmHg 86%
    22:00 +1°C° 0 mm 1 mps 743 mmHg 85%
    23:00 +1°C° 0 mm 1 mps 743 mmHg 85%

    24 January, Thursday

    Time Temperature Precipitation Wind Pressure Humidity
    00:00 +2°C° 0 mm 1 mps 743 mmHg 84%
    01:00 +1°C° 0.1 mm 2 mps 743 mmHg 85%
    02:00 +2°C° 0.1 mm 2 mps 742 mmHg 86%
    03:00 +2°C° 0.1 mm 2 mps 742 mmHg 86%
    04:00 +2°C° 0.3 mm 3 mps 742 mmHg 88%
    05:00 +2°C° 0.3 mm 3 mps 742 mmHg 91%
    06:00 +3°C° 0.3 mm 4 mps 742 mmHg 93%
    07:00 +3°C° 0.3 mm 4 mps 742 mmHg 94%
    08:00 +4°C° 0.3 mm 4 mps 742 mmHg 95%
    09:00 +4°C° 0.3 mm 4 mps 742 mmHg 96%
    10:00 +5°C° 0.2 mm 3 mps 742 mmHg 96%
    11:00 +5°C° 0.2 mm 3 mps 742 mmHg 96%
    12:00 +7°C° 0.2 mm 3 mps 742 mmHg 96%
    13:00 +7°C° 0.1 mm 4 mps 742 mmHg 94%
    14:00 +7°C° 0.1 mm 5 mps 742 mmHg 93%
    15:00 +8°C° 0.1 mm 5 mps 742 mmHg 92%
    16:00 +7°C° 0 mm 5 mps 742 mmHg 92%
    17:00 +7°C° 0 mm 6 mps 743 mmHg 92%
    18:00 +5°C° 0 mm 6 mps 743 mmHg 92%
    19:00 +6°C° 0 mm 5 mps 743 mmHg 92%
    20:00 +5°C° 0 mm 5 mps 744 mmHg 92%
    21:00 +3°C° 0 mm 5 mps 744 mmHg 92%
    22:00 +4°C° 0 mm 4 mps 744 mmHg 93%
    23:00 +4°C° 0 mm 4 mps 745 mmHg 93%

    25 January, Friday

    Time Temperature Precipitation Wind Pressure Humidity
    00:00 +4°C° 0 mm 4 mps 745 mmHg 94%
    01:00 +4°C° 0 mm 4 mps 745 mmHg 94%
    02:00 +4°C° 0 mm 4 mps 745 mmHg 94%
    03:00 +4°C° 0 mm 3 mps 745 mmHg 95%
    04:00 +4°C° 0 mm 3 mps 745 mmHg 95%
    05:00 +4°C° 0 mm 3 mps 745 mmHg 94%
    06:00 +4°C° 0 mm 3 mps 745 mmHg 94%
    07:00 +4°C° 0 mm 4 mps 745 mmHg 94%
    08:00 +4°C° 0 mm 4 mps 746 mmHg 95%
    09:00 +5°C° 0 mm 4 mps 746 mmHg 95%
    10:00 +6°C° 0 mm 4 mps 746 mmHg 91%
    11:00 +7°C° 0 mm 4 mps 746 mmHg 88%
    12:00 +8°C° 0 mm 5 mps 746 mmHg 84%
    13:00 +8°C° 0 mm 5 mps 746 mmHg 85%
    14:00 +8°C° 0 mm 5 mps 746 mmHg 85%
    15:00 +7°C° 0 mm 5 mps 745 mmHg 85%
    16:00 +7°C° 0 mm 4 mps 745 mmHg 88%
    17:00 +6°C° 0 mm 4 mps 745 mmHg 91%
    18:00 +5°C° 0 mm 4 mps 745 mmHg 94%
    19:00 +6°C° 0 mm 5 mps 744 mmHg 94%
    20:00 +6°C° 0 mm 5 mps 744 mmHg 94%
    21:00 +7°C° 0 mm 6 mps 744 mmHg 94%
    22:00 +7°C° 0 mm 6 mps 743 mmHg 94%
    23:00 +7°C° 0 mm 6 mps 742 mmHg 94%

    26 January, Saturday

    Time Temperature Precipitation Wind Pressure Humidity
    00:00 +8°C° 0 mm 7 mps 742 mmHg 94%
    01:00 +8°C° 0.1 mm 7 mps 741 mmHg 93%
    02:00 +8°C° 0.1 mm 7 mps 740 mmHg 93%
    03:00 +7°C° 0.1 mm 8 mps 739 mmHg 93%
    04:00 +7°C° 0.2 mm 8 mps 738 mmHg 91%
    05:00 +6°C° 0.2 mm 9 mps 737 mmHg 89%
    06:00 +6°C° 0.2 mm 9 mps 736 mmHg 88%
    07:00 +5°C° 1.5 mm 9 mps 735 mmHg 87%
    08:00 +5°C° 1.5 mm 9 mps 735 mmHg 86%
    09:00 +3°C° 1.5 mm 9 mps 734 mmHg 86%
    10:00 +3°C° 0.1 mm 9 mps 735 mmHg 80%
    11:00 +3°C° 0.1 mm 9 mps 735 mmHg 74%
    12:00 +2°C° 0.1 mm 9 mps 736 mmHg 68%
    13:00 +2°C° 0 mm 9 mps 736 mmHg 67%
    14:00 +2°C° 0 mm 9 mps 736 mmHg 67%
    15:00 +2°C° 0 mm 9 mps 737 mmHg 67%
    16:00 +1°C° 0 mm 8 mps 737 mmHg 70%
    17:00 0°C° 0 mm 7 mps 737 mmHg 72%
    18:00 -1°C° 0 mm 7 mps 737 mmHg 75%
    19:00 -1°C° 0 mm 7 mps 737 mmHg 76%
    20:00 0°C° 0 mm 7 mps 737 mmHg 77%
    21:00 0°C° 0 mm 7 mps 738 mmHg 78%
    22:00 0°C° 0 mm 7 mps 738 mmHg 78%
    23:00 -1°C° 0 mm 6 mps 738 mmHg 78%
    Show more